Shirley, NY

9:12 AM EDT on July 28, 2017 (GMT -0400)
Brookhaven

Weather History for KHWV - September, 2013

Change the Weather History Date:

Sunday, September 1, 2013

  Actual Average (KISP) Record (KISP)
Temperature  
Mean Temperature 75 °F -  
Max Temperature 77 °F 77 °F 93 °F (2010)
Min Temperature 73 °F 60 °F 49 °F (1991)
Cooling Degree Days 10    
Growing Degree Days 25 (Base 50)    
Moisture  
Dew Point 72 °F    
Average Humidity 91    
Maximum Humidity 94    
Minimum Humidity 87    
Precipitation  
Precipitation 0.22 in - - ()
Sea Level Pressure  
Sea Level Pressure 29.86 in    
Wind  
Wind Speed 9 mph (SSW)    
Max Wind Speed 14 mph    
Max Gust Speed 20 mph    
Visibility 9 miles    
Events Rain    
Averages and records for this station are not official NWS values.
T = Trace of Precipitation, MM = Missing Value Source: NWS Daily Summary

Daily Weather History Graph

Daily Weather History Graph

Search for Another Location

Airport or City:

Trip Planner

Search our weather history database for the weather conditions in past years. The results will help you decide how hot, cold, wet, or windy it might be!

Date:

Astronomy

Sep. 01, 2013 Rise Set
Actual Time 6:18 AM EDT 7:23 PM EDT
Civil Twilight 5:50 AM EDT 7:51 PM EDT
Nautical Twilight 5:16 AM EDT 8:24 PM EDT
Astronomical Twilight 4:41 AM EDT 8:59 PM EDT
Moon 2:36 AM EDT (9/1) 4:59 PM EDT (9/1)
Length of Visible Light 14h 01m
Length of Day
13h 04m
Waning Crescent, 14% of the Moon is Illuminated
Sep 1
Waning Crescent
Sep 5
New
Sep 12
First Quarter
Sep 19
Full
Sep 26
Last Quarter

Hourly Weather History & Observations

Time (EDT) Temp. Dew Point Humidity Pressure Visibility Wind Dir Wind Speed Gust Speed Precip Events Conditions
12:40 AM 73.4 °F 71.6 °F 94% 29.86 in 10.0 mi SSW 11.5 mph 18.4 mph N/A   Scattered Clouds
12:56 AM 73.9 °F 70.0 °F 87% 29.86 in 10.0 mi SW 6.9 mph - N/A   Partly Cloudy
1:56 AM 73.9 °F 71.1 °F 91% 29.86 in 10.0 mi SSW 8.1 mph - N/A   Mostly Cloudy
2:26 AM 73.4 °F 71.6 °F 94% 29.86 in 10.0 mi SSW 9.2 mph - N/A   Overcast
2:56 AM 73.9 °F 71.1 °F 91% 29.85 in 10.0 mi SSW 9.2 mph - N/A   Mostly Cloudy
3:39 AM 73.4 °F 71.6 °F 94% 29.85 in 10.0 mi SSW 6.9 mph - 0.00 in   Overcast
3:56 AM 73.9 °F 71.1 °F 91% 29.85 in 10.0 mi SSW 9.2 mph - 0.00 in   Overcast
4:56 AM 73.9 °F 71.1 °F 91% 29.84 in 9.0 mi SSW 8.1 mph - N/A   Overcast
5:56 AM 73.9 °F 72.0 °F 93% 29.86 in 8.0 mi SSW 8.1 mph - N/A   Overcast
6:56 AM 73.0 °F 71.1 °F 93% 29.86 in 7.0 mi SSW 6.9 mph - N/A   Overcast
7:56 AM 75.0 °F 72.0 °F 90% 29.87 in 8.0 mi SSW 9.2 mph - N/A   Overcast
8:56 AM 75.0 °F 72.0 °F 90% 29.88 in 8.0 mi SSW 6.9 mph - N/A   Overcast
9:56 AM 75.0 °F 72.0 °F 90% 29.88 in 9.0 mi SSW 10.4 mph - N/A   Overcast
10:56 AM 75.9 °F 72.0 °F 87% 29.89 in 10.0 mi South 9.2 mph - N/A   Overcast
11:48 AM 75.2 °F 71.6 °F 89% 29.89 in 2.5 mi SW 5.8 mph - 0.04 in Rain Light Rain
11:56 AM 75.0 °F 73.0 °F 94% 29.89 in 7.0 mi SSW 4.6 mph - 0.04 in   Overcast
12:39 PM 73.4 °F 71.6 °F 94% 29.87 in 1.0 mi South 10.4 mph - 0.18 in Rain Heavy Rain
12:45 PM 73.4 °F 71.6 °F 94% 29.87 in 3.0 mi South 9.2 mph - 0.18 in Rain Light Rain
12:52 PM 75.2 °F 73.4 °F 94% 29.87 in 5.0 mi South 10.4 mph - 0.18 in   Overcast
12:56 PM 75.9 °F 73.9 °F 94% 29.86 in 5.0 mi South 9.2 mph - 0.18 in   Overcast
1:56 PM 77.0 °F 73.9 °F 90% 29.86 in 8.0 mi South 12.7 mph - N/A   Overcast
2:56 PM 77.0 °F 73.0 °F 88% 29.86 in 10.0 mi South 13.8 mph - N/A   Overcast
3:53 PM 77.0 °F 73.4 °F 89% 29.86 in 10.0 mi South 10.4 mph - N/A   Overcast
3:56 PM 77.0 °F 73.0 °F 88% 29.86 in 10.0 mi SSW 12.7 mph - N/A   Overcast
4:16 PM 77.0 °F 73.4 °F 89% 29.85 in 10.0 mi South 10.4 mph - N/A   Overcast
4:31 PM 77.0 °F 73.4 °F 89% 29.84 in 10.0 mi South 11.5 mph - N/A   Overcast
4:56 PM 77.0 °F 73.0 °F 88% 29.84 in 10.0 mi South 10.4 mph 19.6 mph N/A   Overcast
5:38 PM 75.2 °F 73.4 °F 94% 29.85 in 10.0 mi SSW 12.7 mph - N/A   Overcast
5:53 PM 75.2 °F 73.4 °F 94% 29.85 in 10.0 mi South 11.5 mph - N/A   Overcast
5:56 PM 75.9 °F 73.0 °F 91% 29.85 in 10.0 mi South 10.4 mph - N/A   Overcast
6:56 PM 75.0 °F 72.0 °F 90% 29.84 in 9.0 mi South 5.8 mph - N/A   Overcast
7:56 PM 75.0 °F 72.0 °F 90% 29.84 in 10.0 mi South 6.9 mph - N/A   Overcast
8:56 PM 75.0 °F 72.0 °F 90% 29.86 in 10.0 mi South 6.9 mph - N/A   Overcast
9:36 PM 75.2 °F 71.6 °F 89% 29.87 in 10.0 mi South 8.1 mph - N/A   Overcast
9:56 PM 75.0 °F 72.0 °F 90% 29.87 in 10.0 mi South 5.8 mph - N/A   Overcast
10:56 PM 73.9 °F 72.0 °F 93% 29.86 in 10.0 mi South 8.1 mph - N/A   Overcast
11:56 PM 73.9 °F 72.0 °F 93% 29.85 in 9.0 mi South 5.8 mph - N/A   Overcast